User: anonymous
Location: Syracuse
(43.0480°N, 76.1480°W)
Time: 04:40:33
(UTC-04:00)
Language:

Cosmos 1140 Rocket - Orbit

View from above orbital plane
View from above orbital plane
View from above satellite
View from above satellite

Ground track
Ground track

The orbit data is extracted from the following two-line orbital elements,

1 11574U 79089B   14208.96285351  .00000061  00000-0  27624-4 0  7928
2 11574 074.0719 006.3840 0015814 182.9789 325.9380 14.40238131825217
Epoch (UTC): 27 July 2014 23:06:30
Eccentricity: 0.0015814
inclination: 74.0719°
perigee height: 746 km
apogee height: 769 km
right ascension of ascending node: 6.3840°
argument of perigee: 182.9789°
revolutions per day: 14.40238131
mean anomaly at epoch: 325.9380°
orbit number at epoch: 82521

The dashed part of the orbit path shows where the satellite is in the earth's shadow,  

DLR